Torna al catalogo

SL-8 R/B

AttivoPO
NORAD 17526·ROCKET BODY·🇷🇺 Russia

Lanciato Feb 18, 1987 da Plesetsk Cosmodrome

Loading…

Prossimi Passaggi (prossime 24 ore)

TLE

AggiornatoSource: Space-Track

Epoca: Sep 14, 2026, 02:18 UTC

1 17526U 87017B   26257.09607621 -.00000004  00000-0 -19379-4 0  9996
2 17526  82.9006  36.4953 0039144 236.0610 123.6824 13.77236440970556

Traccia SL-8 R/B in tempo reale con AllMySat

Download on the App Store